TimeMDT,TemperatureF,Dew PointF,Humidity,Sea Level PressureIn,VisibilityMPH,Wind Direction,Wind SpeedMPH,Gust SpeedMPH,PrecipitationIn,Events,Conditions,WindDirDegrees,DateUTC
12:56 AM,23.0,12.0,63,30.60,10.0,East,8.1,-,N/A,,Clear,90,2013-05-02 06:56:00
1:56 AM,20.1,10.0,65,30.61,10.0,East,5.8,-,N/A,,Clear,100,2013-05-02 07:56:00
2:56 AM,21.0,12.0,68,30.61,10.0,Calm,Calm,-,N/A,,Clear,0,2013-05-02 08:56:00
3:56 AM,19.0,11.1,71,30.63,10.0,SE,4.6,-,N/A,,Clear,130,2013-05-02 09:56:00
4:56 AM,18.1,10.0,71,30.63,10.0,Calm,Calm,-,N/A,,Clear,0,2013-05-02 10:56:00
5:56 AM,19.0,11.1,71,30.65,10.0,Calm,Calm,-,N/A,,Clear,0,2013-05-02 11:56:00
6:56 AM,20.1,12.0,71,30.63,10.0,SSE,4.6,-,N/A,,Clear,150,2013-05-02 12:56:00
7:56 AM,28.0,15.1,58,30.62,10.0,Calm,Calm,-,N/A,,Clear,0,2013-05-02 13:56:00
8:56 AM,34.0,9.1,36,30.63,10.0,Calm,Calm,-,N/A,,Clear,0,2013-05-02 14:56:00
9:56 AM,38.8,9.1,29,30.63,10.0,NW,3.5,-,N/A,,Clear,310,2013-05-02 15:56:00
10:56 AM,43.0,8.1,24,30.60,10.0,Calm,Calm,-,N/A,,Clear,0,2013-05-02 16:56:00
11:56 AM,45.0,7.2,21,30.59,10.0,SSW,5.8,-,N/A,,Clear,210,2013-05-02 17:56:00
12:56 PM,46.9,6.1,19,30.57,10.0,West,4.6,-,N/A,,Clear,270,2013-05-02 18:56:00
1:56 PM,50.0,10.0,20,30.54,10.0,ESE,3.5,-,N/A,,Clear,110,2013-05-02 19:56:00
2:56 PM,52.0,13.1,21,30.50,10.0,WNW,6.9,-,N/A,,Clear,290,2013-05-02 20:56:00
3:56 PM,52.0,12.0,20,30.49,10.0,West,3.5,-,N/A,,Partly Cloudy,260,2013-05-02 21:56:00
4:56 PM,54.9,12.0,18,30.45,10.0,Variable,4.6,-,N/A,,Clear,0,2013-05-02 22:56:00
5:56 PM,54.0,10.0,17,30.43,10.0,NNE,9.2,-,N/A,,Clear,30,2013-05-02 23:56:00
6:56 PM,50.9,9.1,19,30.43,10.0,NW,10.4,-,N/A,,Clear,320,2013-05-03 00:56:00
7:56 PM,47.8,12.0,24,30.40,10.0,NNE,5.8,-,N/A,,Clear,20,2013-05-03 01:56:00
8:56 PM,37.9,15.1,39,30.41,10.0,East,8.1,-,N/A,,Clear,80,2013-05-03 02:56:00
9:56 PM,37.9,14.0,38,30.37,10.0,East,12.7,-,N/A,,Clear,80,2013-05-03 03:56:00
10:56 PM,34.9,14.0,42,30.37,10.0,Calm,Calm,-,N/A,,Clear,0,2013-05-03 04:56:00
11:56 PM,32.9,14.0,46,30.36,10.0,Calm,Calm,-,N/A,,Clear,0,2013-05-03 05:56:00